Year,Month,Day,Hour,Minute,Value (Times are PST for temperature in C)
2012,09,12,00,00,8.90
2012,09,12,00,01,8.90
2012,09,12,00,02,8.90
2012,09,12,00,03,8.90
2012,09,12,00,04,8.90
2012,09,12,00,05,8.90
2012,09,12,00,06,8.90
2012,09,12,00,07,8.80
2012,09,12,00,08,8.80
2012,09,12,00,09,8.80
2012,09,12,00,10,8.80
2012,09,12,00,11,8.80
2012,09,12,00,12,8.80
2012,09,12,00,13,8.80
2012,09,12,00,15,8.80
2012,09,12,00,16,8.80
2012,09,12,00,17,8.80
2012,09,12,00,18,8.80
2012,09,12,00,19,8.70
2012,09,12,00,20,8.70
2012,09,12,00,21,8.70
2012,09,12,00,22,8.70
2012,09,12,00,23,8.70
2012,09,12,00,24,8.70
2012,09,12,00,25,8.70
2012,09,12,00,26,8.70
2012,09,12,00,28,8.70
2012,09,12,00,29,8.70
2012,09,12,00,30,8.70
2012,09,12,00,32,8.60
2012,09,12,00,33,8.60
2012,09,12,00,35,8.60
2012,09,12,00,36,8.50
2012,09,12,00,37,8.50
2012,09,12,00,38,8.40
2012,09,12,00,39,8.40
2012,09,12,00,40,8.40
2012,09,12,00,41,8.30
2012,09,12,00,42,8.30
2012,09,12,00,43,8.30
2012,09,12,00,44,8.30
2012,09,12,00,45,8.30
2012,09,12,00,46,8.30
2012,09,12,00,47,8.20
2012,09,12,00,48,8.20
2012,09,12,00,50,8.10
2012,09,12,00,51,8.10
2012,09,12,00,52,8.10
2012,09,12,00,54,8.00
2012,09,12,00,55,8.00
2012,09,12,00,57,7.90
2012,09,12,00,58,7.90
2012,09,12,01,00,7.80
2012,09,12,01,01,7.80
2012,09,12,01,02,7.80
2012,09,12,01,04,7.70
2012,09,12,01,05,7.70
2012,09,12,01,06,7.70
2012,09,12,01,08,7.70
2012,09,12,01,09,7.60
2012,09,12,01,10,7.60
2012,09,12,01,12,7.60
2012,09,12,01,13,7.60
2012,09,12,01,14,7.60
2012,09,12,01,15,7.60
2012,09,12,01,17,7.50
2012,09,12,01,18,7.60
2012,09,12,01,19,7.50
2012,09,12,01,21,7.50
2012,09,12,01,22,7.50
2012,09,12,01,23,7.50
2012,09,12,01,25,7.50
2012,09,12,01,26,7.50
2012,09,12,01,27,7.60
2012,09,12,01,29,7.50
2012,09,12,01,30,7.60
2012,09,12,01,32,7.50
2012,09,12,01,33,7.50
2012,09,12,01,35,7.50
2012,09,12,01,36,7.50
2012,09,12,01,37,7.40
2012,09,12,01,38,7.40
2012,09,12,01,39,7.40
2012,09,12,01,40,7.40
2012,09,12,01,41,7.40
2012,09,12,01,43,7.30
2012,09,12,01,44,7.30
2012,09,12,01,45,7.30
2012,09,12,01,47,7.20
2012,09,12,01,48,7.20
2012,09,12,01,49,7.20
2012,09,12,01,51,7.20
2012,09,12,01,52,7.20
2012,09,12,01,53,7.20
2012,09,12,01,54,7.20
2012,09,12,01,56,7.10
2012,09,12,01,57,7.10
2012,09,12,01,58,7.10
2012,09,12,02,00,7.10
2012,09,12,02,01,7.10
2012,09,12,02,02,7.00
2012,09,12,02,03,7.10
2012,09,12,02,04,7.10
2012,09,12,02,06,7.10
2012,09,12,02,07,7.10
2012,09,12,02,09,7.10
2012,09,12,02,10,7.10
2012,09,12,02,11,7.10
2012,09,12,02,12,7.10
2012,09,12,02,13,7.10
2012,09,12,02,15,7.10
2012,09,12,02,16,7.10
2012,09,12,02,17,7.10
2012,09,12,02,19,7.00
2012,09,12,02,20,7.10
2012,09,12,02,21,7.00
2012,09,12,02,23,6.90
2012,09,12,02,24,6.90
2012,09,12,02,26,6.90
2012,09,12,02,27,6.90
2012,09,12,02,28,6.80
2012,09,12,02,29,6.80
2012,09,12,02,30,6.80
2012,09,12,02,31,6.80
2012,09,12,02,32,6.80
2012,09,12,02,33,6.70
2012,09,12,02,34,6.70
2012,09,12,02,35,6.70
2012,09,12,02,36,6.70
2012,09,12,02,37,6.70
2012,09,12,02,38,6.60
2012,09,12,02,39,6.60
2012,09,12,02,41,6.60
2012,09,12,02,42,6.60
2012,09,12,02,43,6.60
2012,09,12,02,45,6.50
2012,09,12,02,46,6.50
2012,09,12,02,47,6.50
2012,09,12,02,49,6.40
2012,09,12,02,50,6.40
2012,09,12,02,51,6.40
2012,09,12,02,52,6.40
2012,09,12,02,54,6.40
2012,09,12,02,55,6.40
2012,09,12,02,56,6.40
2012,09,12,02,57,6.40
2012,09,12,02,58,6.40
2012,09,12,03,00,6.30
2012,09,12,03,01,6.30
2012,09,12,03,02,6.30
2012,09,12,03,03,6.30
2012,09,12,03,05,6.30
2012,09,12,03,06,6.30
2012,09,12,03,08,6.30
2012,09,12,03,09,6.30
2012,09,12,03,10,6.30
2012,09,12,03,12,6.30
2012,09,12,03,13,6.30
2012,09,12,03,14,6.30
2012,09,12,03,16,6.30
2012,09,12,03,17,6.30
2012,09,12,03,18,6.30
2012,09,12,03,20,6.30
2012,09,12,03,21,6.30
2012,09,12,03,22,6.30
2012,09,12,03,23,6.20
2012,09,12,03,24,6.20
2012,09,12,03,25,6.20
2012,09,12,03,26,6.20
2012,09,12,03,27,6.20
2012,09,12,03,28,6.20
2012,09,12,03,29,6.10
2012,09,12,03,31,6.10
2012,09,12,03,32,6.10
2012,09,12,03,34,6.10
2012,09,12,03,35,6.00
2012,09,12,03,36,6.00
2012,09,12,03,37,5.90
2012,09,12,03,39,5.90
2012,09,12,03,40,5.90
2012,09,12,03,41,5.90
2012,09,12,03,43,5.90
2012,09,12,03,44,5.80
2012,09,12,03,46,5.80
2012,09,12,03,48,5.80
2012,09,12,03,50,5.80
2012,09,12,03,52,5.80
2012,09,12,03,53,5.80
2012,09,12,03,54,5.70
2012,09,12,03,55,5.70
2012,09,12,03,56,5.70
2012,09,12,03,57,5.70
2012,09,12,03,59,5.70
2012,09,12,04,00,5.70
2012,09,12,04,02,5.70
2012,09,12,04,03,5.70
2012,09,12,04,05,5.60
2012,09,12,04,06,5.60
2012,09,12,04,07,5.60
2012,09,12,04,08,5.60
2012,09,12,04,10,5.60
2012,09,12,04,12,5.60
2012,09,12,04,13,5.60
2012,09,12,04,14,5.60
2012,09,12,04,15,5.60
2012,09,12,04,16,5.60
2012,09,12,04,17,5.60
2012,09,12,04,19,5.60
2012,09,12,04,20,5.60
2012,09,12,04,22,5.50
2012,09,12,04,23,5.50
2012,09,12,04,24,5.50
2012,09,12,04,25,5.50
2012,09,12,04,26,5.50
2012,09,12,04,27,5.40
2012,09,12,04,28,5.40
2012,09,12,04,29,5.40
2012,09,12,04,30,5.40
2012,09,12,04,31,5.40
2012,09,12,04,32,5.40
2012,09,12,04,34,5.40
2012,09,12,04,36,5.30
2012,09,12,04,37,5.30
2012,09,12,04,38,5.30
2012,09,12,04,39,5.30
2012,09,12,04,41,5.20
2012,09,12,04,42,5.20
2012,09,12,04,43,5.20
2012,09,12,04,44,5.20
2012,09,12,04,46,5.20
2012,09,12,04,47,5.10
2012,09,12,04,48,5.10
2012,09,12,04,50,5.10
2012,09,12,04,51,5.10
2012,09,12,04,52,5.10
2012,09,12,04,54,5.10
2012,09,12,04,55,5.10
2012,09,12,04,56,5.10
2012,09,12,04,57,5.10
2012,09,12,04,58,5.10
2012,09,12,05,00,5.10
2012,09,12,05,01,5.10
2012,09,12,05,02,5.10
2012,09,12,05,04,5.10
2012,09,12,05,05,5.10
2012,09,12,05,06,5.10
2012,09,12,05,08,5.10
2012,09,12,05,09,5.00
2012,09,12,05,11,5.00
2012,09,12,05,12,5.00
2012,09,12,05,13,5.00
2012,09,12,05,14,5.00
2012,09,12,05,15,5.00
2012,09,12,05,17,5.00
2012,09,12,05,18,5.00
2012,09,12,05,19,5.00
2012,09,12,05,21,5.00
2012,09,12,05,22,5.00
2012,09,12,05,23,5.00
2012,09,12,05,25,4.90
2012,09,12,05,26,4.90
2012,09,12,05,27,4.90
2012,09,12,05,28,4.90
2012,09,12,05,30,4.90
2012,09,12,05,31,4.90
2012,09,12,05,33,4.90
2012,09,12,05,35,4.90
2012,09,12,05,36,4.90
2012,09,12,05,38,4.90
2012,09,12,05,39,4.90
2012,09,12,05,40,4.80
2012,09,12,05,41,4.80
2012,09,12,05,42,4.80
2012,09,12,05,44,4.80
2012,09,12,05,45,4.80
2012,09,12,05,46,4.80
2012,09,12,05,48,4.70
2012,09,12,05,49,4.70
2012,09,12,05,51,4.70
2012,09,12,05,52,4.70
2012,09,12,05,53,4.70
2012,09,12,05,54,4.70
2012,09,12,05,55,4.70
2012,09,12,05,56,4.70
2012,09,12,05,57,4.70
2012,09,12,05,58,4.70
2012,09,12,06,00,4.60
2012,09,12,06,01,4.60
2012,09,12,06,03,4.60
2012,09,12,06,04,4.70
2012,09,12,06,05,4.60
2012,09,12,06,07,4.70
2012,09,12,06,08,4.60
2012,09,12,06,09,4.60
2012,09,12,06,10,4.60
2012,09,12,06,11,4.60
2012,09,12,06,12,4.60
2012,09,12,06,13,4.60
2012,09,12,06,14,4.60
2012,09,12,06,15,4.60
2012,09,12,06,16,4.60
2012,09,12,06,17,4.60
2012,09,12,06,18,4.60
2012,09,12,06,19,4.60
2012,09,12,06,20,4.60
2012,09,12,06,21,4.60
2012,09,12,06,22,4.60
2012,09,12,06,23,4.60
2012,09,12,06,24,4.60
2012,09,12,06,25,4.60
2012,09,12,06,26,4.60
2012,09,12,06,27,4.60
2012,09,12,06,28,4.60
2012,09,12,06,29,4.60
2012,09,12,06,30,4.60
2012,09,12,06,31,4.60
2012,09,12,06,32,4.60
2012,09,12,06,33,4.60
2012,09,12,06,34,4.60
2012,09,12,06,35,4.50
2012,09,12,06,36,4.50
2012,09,12,06,37,4.50
2012,09,12,06,38,4.40
2012,09,12,06,39,4.40
2012,09,12,06,40,4.40
2012,09,12,06,41,4.40
2012,09,12,06,42,4.40
2012,09,12,06,43,4.40
2012,09,12,06,44,4.30
2012,09,12,06,45,4.30
2012,09,12,06,46,4.30
2012,09,12,06,47,4.30
2012,09,12,06,48,4.30
2012,09,12,06,49,4.30
2012,09,12,06,50,4.30
2012,09,12,06,51,4.20
2012,09,12,06,52,4.20
2012,09,12,06,54,4.20
2012,09,12,06,56,4.10
2012,09,12,06,58,4.10
2012,09,12,06,59,4.10
2012,09,12,07,00,4.10
2012,09,12,07,01,4.10
2012,09,12,07,02,4.00
2012,09,12,07,04,4.00
2012,09,12,07,05,3.90
2012,09,12,07,07,3.90
2012,09,12,07,08,3.90
2012,09,12,07,09,3.90
2012,09,12,07,11,3.90
2012,09,12,07,12,3.90
2012,09,12,07,13,3.90
2012,09,12,07,14,3.90
2012,09,12,07,16,3.90
2012,09,12,07,17,3.90
2012,09,12,07,19,3.90
2012,09,12,07,20,3.90
2012,09,12,07,21,3.90
2012,09,12,07,22,3.80
2012,09,12,07,23,3.90
2012,09,12,07,24,3.90
2012,09,12,07,25,3.90
2012,09,12,07,27,3.90
2012,09,12,07,29,3.90
2012,09,12,07,31,4.00
2012,09,12,07,33,4.10
2012,09,12,07,34,4.10
2012,09,12,07,35,4.10
2012,09,12,07,37,4.20
2012,09,12,07,39,4.30
2012,09,12,07,40,4.40
2012,09,12,07,42,4.50
2012,09,12,07,44,4.60
2012,09,12,07,45,4.70
2012,09,12,07,46,4.70
2012,09,12,07,47,4.70
2012,09,12,07,48,4.80
2012,09,12,07,49,4.80
2012,09,12,07,50,4.80
2012,09,12,07,51,4.80
2012,09,12,07,52,4.80
2012,09,12,07,53,4.80
2012,09,12,07,55,4.90
2012,09,12,07,56,4.90
2012,09,12,07,58,4.90
2012,09,12,07,59,4.90
2012,09,12,08,00,5.00
2012,09,12,08,01,5.10
2012,09,12,08,02,5.20
2012,09,12,08,03,5.20
2012,09,12,08,04,5.30
2012,09,12,08,06,5.60
2012,09,12,08,07,5.70
2012,09,12,08,09,5.90
2012,09,12,08,10,6.00
2012,09,12,08,12,6.20
2012,09,12,08,13,6.20
2012,09,12,08,15,6.30
2012,09,12,08,17,6.40
2012,09,12,08,18,6.50
2012,09,12,08,20,6.60
2012,09,12,08,21,6.70
2012,09,12,08,23,6.80
2012,09,12,08,24,6.90
2012,09,12,08,26,6.90
2012,09,12,08,27,6.90
2012,09,12,08,28,7.00
2012,09,12,08,30,7.10
2012,09,12,08,31,7.10
2012,09,12,08,32,7.10
2012,09,12,08,34,7.20
2012,09,12,08,35,7.20
2012,09,12,08,36,7.20
2012,09,12,08,38,7.20
2012,09,12,08,39,7.20
2012,09,12,08,41,7.20
2012,09,12,08,42,7.20
2012,09,12,08,44,7.20
2012,09,12,08,46,7.20
2012,09,12,08,47,7.20
2012,09,12,08,48,7.20
2012,09,12,08,49,7.30
2012,09,12,08,50,7.30
2012,09,12,08,51,7.30
2012,09,12,08,52,7.30
2012,09,12,08,53,7.40
2012,09,12,08,54,7.40
2012,09,12,08,55,7.40
2012,09,12,08,57,7.60
2012,09,12,08,58,7.60
2012,09,12,08,59,7.70
2012,09,12,09,00,7.70
2012,09,12,09,01,7.70
2012,09,12,09,02,7.80
2012,09,12,09,03,7.80
2012,09,12,09,05,7.90
2012,09,12,09,06,7.90
2012,09,12,09,07,8.00
2012,09,12,09,09,8.20
2012,09,12,09,10,8.20
2012,09,12,09,11,8.30
2012,09,12,09,13,8.30
2012,09,12,09,15,8.50
2012,09,12,09,16,8.60
2012,09,12,09,17,8.60
2012,09,12,09,19,8.70
2012,09,12,09,20,8.80
2012,09,12,09,21,8.80
2012,09,12,09,22,8.90
2012,09,12,09,23,8.90
2012,09,12,09,24,9.10
2012,09,12,09,25,9.10
2012,09,12,09,27,9.30
2012,09,12,09,28,9.30
2012,09,12,09,29,9.40
2012,09,12,09,30,9.60
2012,09,12,09,32,9.70
2012,09,12,09,33,9.80
2012,09,12,09,34,9.80
2012,09,12,09,36,9.90
2012,09,12,09,38,10.10
2012,09,12,09,40,10.30
2012,09,12,09,41,10.40
2012,09,12,09,42,10.50
2012,09,12,09,44,10.60
2012,09,12,09,45,10.70
2012,09,12,09,46,10.70
2012,09,12,09,48,10.80
2012,09,12,09,49,10.90
2012,09,12,09,50,11.00
2012,09,12,09,51,11.10
2012,09,12,09,52,11.10
2012,09,12,09,53,11.20
2012,09,12,09,54,11.20
2012,09,12,09,55,11.20
2012,09,12,09,56,11.30
2012,09,12,09,57,11.30
2012,09,12,09,58,11.30
2012,09,12,09,59,11.40
2012,09,12,10,00,11.40
2012,09,12,10,01,11.50
2012,09,12,10,02,11.60
2012,09,12,10,03,11.70
2012,09,12,10,04,11.80
2012,09,12,10,05,11.80
2012,09,12,10,07,11.90
2012,09,12,10,08,11.90
2012,09,12,10,09,11.90
2012,09,12,10,10,11.90
2012,09,12,10,11,11.90
2012,09,12,10,13,12.00
2012,09,12,10,15,12.10
2012,09,12,10,17,12.10
2012,09,12,10,19,12.10
2012,09,12,10,20,12.10
2012,09,12,10,21,12.10
2012,09,12,10,23,12.10
2012,09,12,10,24,12.10
2012,09,12,10,25,12.20
2012,09,12,10,27,12.20
2012,09,12,10,28,12.20
2012,09,12,10,30,12.20
2012,09,12,10,31,12.30
2012,09,12,10,32,12.40
2012,09,12,10,34,12.60
2012,09,12,10,35,12.60
2012,09,12,10,36,12.70
2012,09,12,10,38,12.90
2012,09,12,10,39,12.90
2012,09,12,10,40,12.90
2012,09,12,10,41,13.00
2012,09,12,10,42,13.10
2012,09,12,10,43,13.10
2012,09,12,10,45,13.30
2012,09,12,10,47,13.40
2012,09,12,10,48,13.40
2012,09,12,10,50,13.70
2012,09,12,10,52,13.80
2012,09,12,10,54,13.90
2012,09,12,10,55,13.90
2012,09,12,10,56,13.90
2012,09,12,10,58,13.90
2012,09,12,10,59,13.90
2012,09,12,11,00,13.90
2012,09,12,11,01,13.90
2012,09,12,11,02,14.00
2012,09,12,11,04,14.10
2012,09,12,11,06,14.10
2012,09,12,11,07,14.10
2012,09,12,11,08,14.10
2012,09,12,11,10,14.20
2012,09,12,11,11,14.20
2012,09,12,11,13,14.30
2012,09,12,11,14,14.30
2012,09,12,11,15,14.40
2012,09,12,11,17,14.60
2012,09,12,11,19,14.70
2012,09,12,11,21,14.70
2012,09,12,11,23,14.70
2012,09,12,11,25,14.80
2012,09,12,11,26,14.90
2012,09,12,11,27,15.00
2012,09,12,11,29,15.00
2012,09,12,11,30,15.00
2012,09,12,11,31,15.10
2012,09,12,11,33,15.20
2012,09,12,11,34,15.30
2012,09,12,11,35,15.30
2012,09,12,11,37,15.40
2012,09,12,11,38,15.40
2012,09,12,11,39,15.50
2012,09,12,11,41,15.60
2012,09,12,11,42,15.70
2012,09,12,11,44,15.90
2012,09,12,11,45,16.00
2012,09,12,11,46,16.10
2012,09,12,11,47,16.10
2012,09,12,11,49,16.10
2012,09,12,11,50,16.10
2012,09,12,11,51,16.10
2012,09,12,11,52,16.10
2012,09,12,11,53,16.10
2012,09,12,11,54,16.20
2012,09,12,11,55,16.20
2012,09,12,11,56,16.20
2012,09,12,11,57,16.20
2012,09,12,11,58,16.20
2012,09,12,11,59,16.20
2012,09,12,12,00,16.20
2012,09,12,12,01,16.20
2012,09,12,12,02,16.30
2012,09,12,12,03,16.30
2012,09,12,12,04,16.30
2012,09,12,12,05,16.40
2012,09,12,12,06,16.40
2012,09,12,12,07,16.40
2012,09,12,12,08,16.50
2012,09,12,12,09,16.60
2012,09,12,12,10,16.60
2012,09,12,12,11,16.70
2012,09,12,12,12,16.70
2012,09,12,12,13,16.80
2012,09,12,12,14,16.80
2012,09,12,12,15,16.80
2012,09,12,12,16,16.80
2012,09,12,12,17,16.90
2012,09,12,12,18,16.90
2012,09,12,12,19,17.00
2012,09,12,12,20,17.00
2012,09,12,12,21,17.00
2012,09,12,12,22,17.10
2012,09,12,12,23,17.10
2012,09,12,12,24,17.10
2012,09,12,12,25,17.10
2012,09,12,12,26,17.10
2012,09,12,12,27,17.10
2012,09,12,12,28,17.10
2012,09,12,12,29,17.20
2012,09,12,12,30,17.20
2012,09,12,12,31,17.30
2012,09,12,12,34,17.40
2012,09,12,12,35,17.40
2012,09,12,12,36,17.40
2012,09,12,12,37,17.50
2012,09,12,12,38,17.50
2012,09,12,12,39,17.50
2012,09,12,12,40,17.40
2012,09,12,12,41,17.40
2012,09,12,12,42,17.40
2012,09,12,12,43,17.50
2012,09,12,12,44,17.50
2012,09,12,12,45,17.50
2012,09,12,12,46,17.60
2012,09,12,12,47,17.60
2012,09,12,12,48,17.70
2012,09,12,12,49,17.80
2012,09,12,12,50,17.80
2012,09,12,12,51,17.90
2012,09,12,12,52,17.90
2012,09,12,12,53,17.90
2012,09,12,12,54,18.00
2012,09,12,12,55,18.00
2012,09,12,12,56,18.00
2012,09,12,12,57,18.00
2012,09,12,12,58,18.10
2012,09,12,12,59,18.10
2012,09,12,13,00,18.20
2012,09,12,13,01,18.20
2012,09,12,13,02,18.20
2012,09,12,13,03,18.20
2012,09,12,13,04,18.20
2012,09,12,13,05,18.30
2012,09,12,13,06,18.30
2012,09,12,13,07,18.30
2012,09,12,13,08,18.40
2012,09,12,13,09,18.50
2012,09,12,13,10,18.60
2012,09,12,13,11,18.70
2012,09,12,13,12,18.70
2012,09,12,13,13,18.80
2012,09,12,13,14,18.90
2012,09,12,13,15,18.90
2012,09,12,13,16,18.90
2012,09,12,13,17,19.00
2012,09,12,13,18,19.10
2012,09,12,13,19,19.10
2012,09,12,13,20,19.20
2012,09,12,13,21,19.20
2012,09,12,13,22,19.20
2012,09,12,13,23,19.30
2012,09,12,13,24,19.30
2012,09,12,13,25,19.30
2012,09,12,13,26,19.40
2012,09,12,13,27,19.40
2012,09,12,13,28,19.50
2012,09,12,13,29,19.60
2012,09,12,13,30,19.60
2012,09,12,13,31,19.60
2012,09,12,13,32,19.60
2012,09,12,13,33,19.60
2012,09,12,13,34,19.70
2012,09,12,13,35,19.70
2012,09,12,13,36,19.80
2012,09,12,13,37,19.80
2012,09,12,13,38,19.80
2012,09,12,13,39,19.80
2012,09,12,13,40,19.90
2012,09,12,13,41,19.90
2012,09,12,13,42,19.90
2012,09,12,13,43,20.00
2012,09,12,13,44,20.10
2012,09,12,13,45,20.20
2012,09,12,13,46,20.30
2012,09,12,13,47,20.30
2012,09,12,13,48,20.40
2012,09,12,13,49,20.40
2012,09,12,13,50,20.60
2012,09,12,13,51,20.60
2012,09,12,13,52,20.70
2012,09,12,13,53,20.70
2012,09,12,13,54,20.70
2012,09,12,13,55,20.70
2012,09,12,13,56,20.70
2012,09,12,13,57,20.70
2012,09,12,13,58,20.70
2012,09,12,13,59,20.60
2012,09,12,14,00,20.60
2012,09,12,14,01,20.50
2012,09,12,14,02,20.40
2012,09,12,14,03,20.40
2012,09,12,14,04,20.40
2012,09,12,14,05,20.50
2012,09,12,14,06,20.50
2012,09,12,14,07,20.60
2012,09,12,14,08,20.60
2012,09,12,14,09,20.60
2012,09,12,14,10,20.70
2012,09,12,14,11,20.70
2012,09,12,14,12,20.80
2012,09,12,14,13,20.80
2012,09,12,14,14,20.80
2012,09,12,14,15,20.90
2012,09,12,14,16,20.80
2012,09,12,14,17,20.90
2012,09,12,14,18,20.90
2012,09,12,14,19,21.00
2012,09,12,14,20,21.10
2012,09,12,14,21,21.10
2012,09,12,14,22,21.10
2012,09,12,14,23,21.20
2012,09,12,14,24,21.20
2012,09,12,14,25,21.20
2012,09,12,14,26,21.20
2012,09,12,14,27,21.20
2012,09,12,14,28,21.30
2012,09,12,14,29,21.30
2012,09,12,14,30,21.30
2012,09,12,14,31,21.40
2012,09,12,14,32,21.40
2012,09,12,16,27,21.90
2012,09,12,16,28,21.90
2012,09,12,16,29,21.90
2012,09,12,16,30,21.90
2012,09,12,16,31,21.90
2012,09,12,16,32,22.00
2012,09,12,16,33,21.90
2012,09,12,16,34,21.90
2012,09,12,16,35,21.90
2012,09,12,16,36,21.90
2012,09,12,16,37,21.80
2012,09,12,16,38,21.80
2012,09,12,16,39,21.80
2012,09,12,16,40,21.80
2012,09,12,16,41,21.90
2012,09,12,16,42,21.90
2012,09,12,16,43,21.90
2012,09,12,16,44,21.90
2012,09,12,16,45,21.90
2012,09,12,16,46,22.00
2012,09,12,16,47,22.00
2012,09,12,16,48,22.00
2012,09,12,16,49,22.10
2012,09,12,16,51,22.10
2012,09,12,16,52,22.10
2012,09,12,16,54,22.00
2012,09,12,16,55,22.00
2012,09,12,16,56,21.90
2012,09,12,16,58,21.80
2012,09,12,16,59,21.80
2012,09,12,17,00,21.80
2012,09,12,17,01,21.80
2012,09,12,17,02,21.80
2012,09,12,17,03,21.80
2012,09,12,17,04,21.80
2012,09,12,17,06,21.70
2012,09,12,17,07,21.70
2012,09,12,17,08,21.70
2012,09,12,17,09,21.70
2012,09,12,17,10,21.70
2012,09,12,17,11,21.70
2012,09,12,17,12,21.70
2012,09,12,17,13,21.70
2012,09,12,17,14,21.70
2012,09,12,17,15,21.70
2012,09,12,17,16,21.80
2012,09,12,17,17,21.80
2012,09,12,17,18,21.80
2012,09,12,17,19,21.80
2012,09,12,17,20,21.80
2012,09,12,17,21,21.80
2012,09,12,17,22,21.80
2012,09,12,17,23,21.80
2012,09,12,17,24,21.80
2012,09,12,17,25,21.70
2012,09,12,17,26,21.70
2012,09,12,17,27,21.70
2012,09,12,17,28,21.70
2012,09,12,17,29,21.70
2012,09,12,17,30,21.70
2012,09,12,17,31,21.70
2012,09,12,17,32,21.70
2012,09,12,17,33,21.60
2012,09,12,17,34,21.60
2012,09,12,17,35,21.60
2012,09,12,17,36,21.60
2012,09,12,17,37,21.60
2012,09,12,17,38,21.60
2012,09,12,17,39,21.60
2012,09,12,17,40,21.60
2012,09,12,17,41,21.60
2012,09,12,17,42,21.60
2012,09,12,17,43,21.60
2012,09,12,17,44,21.50
2012,09,12,17,45,21.50
2012,09,12,17,46,21.40
2012,09,12,17,47,21.40
2012,09,12,17,48,21.40
2012,09,12,17,49,21.40
2012,09,12,17,50,21.40
2012,09,12,17,51,21.40
2012,09,12,17,52,21.40
2012,09,12,17,53,21.40
2012,09,12,17,54,21.50
2012,09,12,17,55,21.50
2012,09,12,17,56,21.50
2012,09,12,17,57,21.50
2012,09,12,17,58,21.50
2012,09,12,17,59,21.50
2012,09,12,18,00,21.50
2012,09,12,18,02,21.50
2012,09,12,18,04,21.50
2012,09,12,18,05,21.40
2012,09,12,18,06,21.40
2012,09,12,18,07,21.40
2012,09,12,18,08,21.40
2012,09,12,18,09,21.40
2012,09,12,18,10,21.30
2012,09,12,18,11,21.30
2012,09,12,18,12,21.30
2012,09,12,18,13,21.30
2012,09,12,18,14,21.30
2012,09,12,18,15,21.30
2012,09,12,18,16,21.30
2012,09,12,18,17,21.20
2012,09,12,18,18,21.20
2012,09,12,18,19,21.20
2012,09,12,18,20,21.20
2012,09,12,18,21,21.20
2012,09,12,18,22,21.20
2012,09,12,18,23,21.20
2012,09,12,18,24,21.20
2012,09,12,18,25,21.20
2012,09,12,18,26,21.20
2012,09,12,18,27,21.20
2012,09,12,18,28,21.20
2012,09,12,18,29,21.20
2012,09,12,18,30,21.10
2012,09,12,18,31,21.10
2012,09,12,18,32,21.10
2012,09,12,18,33,21.10
2012,09,12,18,34,21.10
2012,09,12,18,35,21.00
2012,09,12,18,36,21.00
2012,09,12,18,37,21.00
2012,09,12,18,38,20.90
2012,09,12,18,39,20.90
2012,09,12,18,40,20.90
2012,09,12,18,41,20.90
2012,09,12,18,43,20.90
2012,09,12,18,44,20.90
2012,09,12,18,45,20.80
2012,09,12,18,46,20.80
2012,09,12,18,47,20.80
2012,09,12,18,48,20.80
2012,09,12,18,49,20.80
2012,09,12,18,50,20.80
2012,09,12,18,51,20.80
2012,09,12,18,52,20.80
2012,09,12,18,53,20.70
2012,09,12,18,54,20.70
2012,09,12,18,55,20.70
2012,09,12,18,56,20.70
2012,09,12,18,57,20.70
2012,09,12,18,58,20.70
2012,09,12,18,59,20.70
2012,09,12,19,00,20.60
2012,09,12,19,01,20.60
2012,09,12,19,02,20.60
2012,09,12,19,03,20.60
2012,09,12,19,04,20.60
2012,09,12,19,05,20.60
2012,09,12,19,06,20.50
2012,09,12,19,07,20.50
2012,09,12,19,08,20.40
2012,09,12,19,09,20.40
2012,09,12,19,10,20.40
2012,09,12,19,11,20.40
2012,09,12,19,12,20.30
2012,09,12,19,13,20.30
2012,09,12,19,14,20.30
2012,09,12,19,15,20.30
2012,09,12,19,16,20.20
2012,09,12,19,17,20.20
2012,09,12,19,18,20.20
2012,09,12,19,19,20.10
2012,09,12,19,20,20.10
2012,09,12,19,21,20.10
2012,09,12,19,22,20.00
2012,09,12,19,23,20.00
2012,09,12,19,24,19.90
2012,09,12,19,25,19.90
2012,09,12,19,26,19.90
2012,09,12,19,27,19.90
2012,09,12,19,28,19.80
2012,09,12,19,29,19.80
2012,09,12,19,30,19.80
2012,09,12,19,31,19.70
2012,09,12,19,32,19.70
2012,09,12,19,33,19.70
2012,09,12,19,35,19.60
2012,09,12,19,36,19.60
2012,09,12,19,37,19.60
2012,09,12,19,38,19.50
2012,09,12,19,39,19.50
2012,09,12,19,40,19.40
2012,09,12,19,41,19.40
2012,09,12,19,42,19.40
2012,09,12,19,43,19.30
2012,09,12,19,44,19.30
2012,09,12,19,45,19.30
2012,09,12,19,46,19.30
2012,09,12,19,47,19.20
2012,09,12,19,48,19.20
2012,09,12,19,49,19.20
2012,09,12,19,50,19.20
2012,09,12,19,52,19.10
2012,09,12,19,53,19.10
2012,09,12,19,54,19.00
2012,09,12,19,55,19.00
2012,09,12,19,56,18.90
2012,09,12,19,57,18.90
2012,09,12,19,58,18.90
2012,09,12,19,59,18.80
2012,09,12,20,00,18.80
2012,09,12,20,01,18.80
2012,09,12,20,02,18.80
2012,09,12,20,03,18.80
2012,09,12,20,04,18.70
2012,09,12,20,05,18.70
2012,09,12,20,06,18.60
2012,09,12,20,07,18.60
2012,09,12,20,08,18.60
2012,09,12,20,09,18.60
2012,09,12,20,10,18.50
2012,09,12,20,11,18.50
2012,09,12,20,12,18.40
2012,09,12,20,13,18.40
2012,09,12,20,14,18.40
2012,09,12,20,15,18.40
2012,09,12,20,16,18.40
2012,09,12,20,17,18.30
2012,09,12,20,18,18.30
2012,09,12,20,19,18.30
2012,09,12,20,20,18.30
2012,09,12,20,21,18.20
2012,09,12,20,22,18.20
2012,09,12,20,23,18.20
2012,09,12,20,24,18.10
2012,09,12,20,26,18.10
2012,09,12,20,27,18.00
2012,09,12,20,28,17.90
2012,09,12,20,29,17.90
2012,09,12,20,30,17.90
2012,09,12,20,31,17.90
2012,09,12,20,32,17.80
2012,09,12,20,33,17.80
2012,09,12,20,34,17.80
2012,09,12,20,35,17.80
2012,09,12,20,36,17.80
2012,09,12,20,37,17.80
2012,09,12,20,38,17.70
2012,09,12,20,39,17.70
2012,09,12,20,40,17.70
2012,09,12,20,41,17.70
2012,09,12,20,42,17.60
2012,09,12,20,43,17.60
2012,09,12,20,44,17.60
2012,09,12,20,45,17.60
2012,09,12,20,46,17.50
2012,09,12,20,47,17.50
2012,09,12,20,48,17.40
2012,09,12,20,49,17.40
2012,09,12,20,50,17.40
2012,09,12,20,51,17.30
2012,09,12,20,52,17.30
2012,09,12,20,53,17.20
2012,09,12,20,54,17.20
2012,09,12,20,55,17.10
2012,09,12,20,56,17.10
2012,09,12,20,57,17.10
2012,09,12,20,58,17.10
2012,09,12,20,59,17.00
2012,09,12,21,00,17.00
2012,09,12,21,01,17.00
2012,09,12,21,02,16.90
2012,09,12,21,03,16.90
2012,09,12,21,04,16.90
2012,09,12,21,05,16.90
2012,09,12,21,06,16.80
2012,09,12,21,07,16.80
2012,09,12,21,08,16.80
2012,09,12,21,09,16.80
2012,09,12,21,10,16.70
2012,09,12,21,11,16.70
2012,09,12,21,12,16.70
2012,09,12,21,13,16.70
2012,09,12,21,14,16.70
2012,09,12,21,15,16.70
2012,09,12,21,16,16.70
2012,09,12,21,17,16.70
2012,09,12,21,19,16.70
2012,09,12,21,20,16.60
2012,09,12,21,21,16.60
2012,09,12,21,22,16.60
2012,09,12,21,23,16.60
2012,09,12,21,24,16.60
2012,09,12,21,25,16.60
2012,09,12,21,26,16.60
2012,09,12,21,27,16.60
2012,09,12,21,28,16.50
2012,09,12,21,29,16.50
2012,09,12,21,30,16.40
2012,09,12,21,31,16.40
2012,09,12,21,32,16.40
2012,09,12,21,33,16.40
2012,09,12,21,34,16.30
2012,09,12,21,35,16.30
2012,09,12,21,36,16.30
2012,09,12,21,37,16.30
2012,09,12,21,38,16.30
2012,09,12,21,40,16.20
2012,09,12,21,42,16.20
2012,09,12,21,43,16.10
2012,09,12,21,44,16.10
2012,09,12,21,45,16.00
2012,09,12,21,46,15.90
2012,09,12,21,47,15.90
2012,09,12,21,48,15.80
2012,09,12,21,49,15.80
2012,09,12,21,50,15.70
2012,09,12,21,51,15.70
2012,09,12,21,52,15.60
2012,09,12,21,53,15.50
2012,09,12,21,54,15.40
2012,09,12,21,55,15.40
2012,09,12,21,56,15.30
2012,09,12,21,57,15.30
2012,09,12,21,58,15.20
2012,09,12,21,59,15.20
2012,09,12,22,00,15.10
2012,09,12,22,01,15.10
2012,09,12,22,02,15.00
2012,09,12,22,03,15.00
2012,09,12,22,04,15.00
2012,09,12,22,05,15.00
2012,09,12,22,06,15.00
2012,09,12,22,07,14.90
2012,09,12,22,08,14.90
2012,09,12,22,09,14.80
2012,09,12,22,10,14.80
2012,09,12,22,11,14.70
2012,09,12,22,12,14.70
2012,09,12,22,13,14.70
2012,09,12,22,14,14.70
2012,09,12,22,15,14.60
2012,09,12,22,16,14.60
2012,09,12,22,17,14.50
2012,09,12,22,18,14.40
2012,09,12,22,19,14.40
2012,09,12,22,20,14.30